Regional Weather Roundup
Issued by NWS

Home | Current Version | Previous Version | Graphics & Text | Print | Product List | Glossary On
Versions: 1 2 3 4 5 6 7 8 9 10 11 12 13 14 15 16 17 18 19 20 21 22 23 24 25 26 27
000
ASUS45 KTFX 232010
RWRMT
MONTANA REGIONAL WEATHER ROUNDUP
NATIONAL WEATHER SERVICE GREAT FALLS MT
200 PM MDT FRI JUN 23 2017

NOTE: "FAIR" INDICATES FEW OR NO CLOUDS BELOW 12000 FEET WITH NO
SIGNIFICANT WEATHER AND/OR OBSTRUCTIONS TO VISIBILITY.

MTZ001>007-043-232100-
WEST OF THE DIVIDE

CITY           SKY/WX    TMP DP  RH WIND       PRES   REMARKS
KALISPELL      SUNNY     71  38  29 VRB7      30.22S
MISSOULA       SUNNY     72  36  26 SE5       30.22F
BUTTE          SUNNY     66  26  22 W8        30.28F
MULLAN PASS    SUNNY     61  29  29 VRB3      30.32S
ANACONDA         N/A     64  30  27 N7        30.26F
DEER LODGE       N/A     64  32  29 SE8       30.29S
EUREKA           N/A     70  36  28 MISG      30.22S
HAMILTON         N/A     70  32  24 CALM      30.23S
$$

MTZ008-052>055-232100-
SOUTHWEST MONTANA

CITY           SKY/WX    TMP DP  RH WIND       PRES   REMARKS
BOZEMAN        MOSUNNY   66  30  26 VRB3      30.27S
DILLON         SUNNY     66  33  29 N8        30.26F
W YELLOWSTONE  SUNNY     63  23  22 W8        30.29F
ENNIS          SUNNY     64  30  27 N8        30.32F
THREE FORKS      N/A     67  31  26 SE5       30.23F
$$

MTZ009-010-012-014-046-048-049-054-232100-
EAST SLOPES AND CENTRAL MONTANA

CITY           SKY/WX    TMP DP  RH WIND       PRES   REMARKS
CUT BANK       PTSUNNY   63  38  39 NE8       30.28F
GREAT FALLS    MOSUNNY   66  35  31 MISG      30.26F
MALMSTROM AFB  SUNNY     65  38  36 NE8       30.27S
HELENA         SUNNY     70  32  24 NE3       30.24F
CHOTEAU          N/A     63  37  39 NE8       30.29F
$$

MTZ011-013-016-021-045-047-050-051-232100-
NORTH CENTRAL MONTANA

CITY           SKY/WX    TMP DP  RH WIND       PRES   REMARKS
HAVRE          CLOUDY    67  33  28 NW14      30.24F
LEWISTOWN      MOSUNNY   61  35  37 NW10      30.28F
N BAR RANCH    PTSUNNY   63  34  34 NW15      30.30S
CHINOOK          N/A     68  32  26 NW10G20   30.22F
FORT BENTON      N/A     66  36  32 MISG      30.28F
$$

MTZ017>020-022>027-061-062-232100-
NORTHEAST MONTANA

CITY           SKY/WX    TMP DP  RH WIND       PRES   REMARKS
GLASGOW        MOSUNNY   68  30  24 NW18G25   30.18F
JORDAN           N/A     67  30  25 NW14G25   30.21F
SIDNEY         PTSUNNY   65  32  29 NW20G33   30.14F
WOLF POINT     MOSUNNY   70  31  23 NW20G33   30.16F
MALTA          MOSUNNY   68  30  24 NW14G23   30.21S
PLENTYWOOD       N/A     61  30  31 NW26G35   30.10F
POPLAR           N/A     64  32  29 NW21G31   30.15F
$$

MTZ028>42-056>058-232100-
SOUTHCENTRAL AND SOUTHEAST MONTANA

CITY           SKY/WX    TMP DP  RH WIND       PRES   REMARKS
BAKER          MOSUNNY   65  29  25 NW21G31   30.19F
BILLINGS       MOSUNNY   67  32  27 N9        30.24F
LIVINGSTON     SUNNY     66  29  24 SW5       30.25F
MILES CITY     MOSUNNY   68  27  21 N16G32    30.20F
BIG TIMBER     PTSUNNY   64  30  27 CALM      30.27F
FORSYTH          N/A     66  28  24 NW16G22   30.21F
ROUNDUP          N/A     68  32  26 NW8       30.14F
$$

REGIONAL REPORTS...DAKOTAS

CITY           SKY/WX    TMP DP  RH WIND       PRES   REMARKS
WILLISTON      MOSUNNY   67  32  27 NW24G36   30.12F
MINOT          CLOUDY    63  38  39 NW26G36   30.04R
DICKINSON      MOSUNNY   61  29  29 NW22G39   30.10F
BEACH          PTSUNNY   63  30  29 NW25G31   30.19F
CROSBY         PTSUNNY   59  34  38 N25G33    30.10F
TIOGA            N/A     59  34  38 NW29G39   30.11R
WATFORD CITY     N/A     63  34  34 NW22G36   30.10F
BISMARCK       CLOUDY    67  37  33 NW23G35   30.05F
GRAND FORKS    PTSUNNY   65  46  50 NW16G29   29.89R
FARGO          CLOUDY    64  46  52 NW21G29   29.91R
BUFFALO SD       N/A     65  28  24 NW30G47   30.10F
RAPID CITY     SUNNY     68  34  28 N24G41    30.15F
$$

REGIONAL REPORTS...WYOMING/IDAHO/WASHINGTON

CITY           SKY/WX    TMP DP  RH WIND       PRES   REMARKS
GILLETTE       MOSUNNY   66  32  28 NW14G29   30.23F
SHERIDAN       PTSUNNY   69  36  29 N9G20     30.25S
BUFFALO WY     CLOUDY    65  35  33 N17G25    30.28S
CODY           SUNNY     64  29  26 VRB7      30.28F
YELLOWSTONE LA   N/A     54  31  41 VRB5      30.35F
IDAHO FALLS    SUNNY     71  32  23 NE5       30.24S
SALMON         SUNNY     70  27  19 NE3       30.21F
BOISE          SUNNY     76  33  21 SW3       30.17F
SPOKANE        MOSUNNY   76  35  22 N12       30.23F
$$

REGIONAL REPORTS...ALBERTA

CITY           SKY/WX    TMP DP  RH WIND       PRES   REMARKS
EDMONTON       MOSUNNY   66  41  39 NW15G22   30.19F
CALGARY        PTSUNNY   64  34  32 W12       30.26F
LETHBRIDGE     PTSUNNY   66  39  37 NW12G18   30.26F
MEDICINE HAT   PTSUNNY   68  37  32 NW16G23   30.21F
WATERTON GATE    N/A     61  39  44 N6          N/A
$$

REGIONAL REPORTS...SASKATCHEWAN

CITY           SKY/WX    TMP DP  RH WIND       PRES   REMARKS
SWIFT CURRENT  CLOUDY    59  37  44 NW20G32   30.16F
REGINA         PTSUNNY   57  34  41 NW24G32   30.09S
SASKATOON      PTSUNNY   63  34  34 N23G30    30.10S
VAL MARIE        N/A     66  32  28 NW18G28     N/A
ROCKGLEN         N/A     61  34  36 NW18G29     N/A
$$




USA.gov is the U.S. government's official web portal to all federal, state and local government web resources and services.